Time,TemperatureF,DewpointF,PressureIn,WindDirection,WindDirectionDegrees,WindSpeedMPH,WindSpeedGustMPH,Humidity,HourlyPrecipIn,Conditions,Clouds,dailyrainin,SolarRadiationWatts/m^2,SoftwareType,DateUTC
2013-01-27 00:01:00,16.0,10.0,-100.00,South,187,6.0,12.0,77,0.00,,,0.00,0.000000,,2013-01-27 06:01:00,
2013-01-27 00:21:00,15.0,7.0,-100.00,South,185,5.0,9.0,71,0.00,,,0.00,0.000000,,2013-01-27 06:21:00,
2013-01-27 00:32:00,15.0,7.0,-100.00,South,185,5.0,9.0,71,0.00,,,0.00,0.000000,,2013-01-27 06:32:00,
2013-01-27 00:42:00,15.0,7.0,-100.00,South,185,5.0,9.0,71,0.00,,,0.00,0.000000,,2013-01-27 06:42:00,
2013-01-27 00:52:00,15.0,7.0,-100.00,South,185,5.0,9.0,71,0.00,,,0.00,0.000000,,2013-01-27 06:52:00,
2013-01-27 01:01:00,15.0,7.0,-100.00,South,185,5.0,9.0,71,0.00,,,0.00,0.000000,,2013-01-27 07:01:00,
2013-01-27 01:21:00,14.0,6.0,-100.00,SSE,168,4.0,11.0,71,0.00,,,0.00,0.000000,,2013-01-27 07:21:00,
2013-01-27 01:32:00,14.0,6.0,-100.00,SSE,168,4.0,11.0,71,0.00,,,0.00,0.000000,,2013-01-27 07:32:00,
2013-01-27 01:42:00,14.0,6.0,-100.00,SSE,168,4.0,11.0,71,0.00,,,0.00,0.000000,,2013-01-27 07:42:00,
2013-01-27 01:52:00,14.0,6.0,-100.00,SSE,168,4.0,11.0,71,0.00,,,0.00,0.000000,,2013-01-27 07:52:00,
2013-01-27 02:01:00,14.0,6.0,-100.00,SSE,168,4.0,11.0,71,0.00,,,0.00,0.000000,,2013-01-27 08:01:00,
2013-01-27 02:32:00,13.0,6.0,-100.00,South,177,5.0,9.0,74,0.00,,,0.00,0.000000,,2013-01-27 08:32:00,
2013-01-27 02:42:00,13.0,6.0,-100.00,South,177,5.0,9.0,74,0.00,,,0.00,0.000000,,2013-01-27 08:42:00,
2013-01-27 02:52:00,13.0,6.0,-100.00,South,177,5.0,9.0,74,0.00,,,0.00,0.000000,,2013-01-27 08:52:00,
2013-01-27 03:02:00,13.0,6.0,-100.00,South,177,5.0,9.0,74,0.00,,,0.00,0.000000,,2013-01-27 09:02:00,
2013-01-27 03:32:00,11.0,5.0,-100.00,South,174,4.0,8.0,75,0.00,,,0.00,0.000000,,2013-01-27 09:32:00,
2013-01-27 03:42:00,11.0,5.0,-100.00,South,174,4.0,8.0,75,0.00,,,0.00,0.000000,,2013-01-27 09:42:00,
2013-01-27 03:52:00,11.0,5.0,-100.00,South,174,4.0,8.0,75,0.00,,,0.00,0.000000,,2013-01-27 09:52:00,
2013-01-27 04:01:00,11.0,5.0,-100.00,South,174,4.0,8.0,75,0.00,,,0.00,0.000000,,2013-01-27 10:01:00,
2013-01-27 04:21:00,11.0,5.0,-100.00,SSE,158,3.0,6.0,75,0.00,,,-99.99,0.000000,,2013-01-27 10:21:00,
2013-01-27 04:32:00,11.0,5.0,-100.00,SSE,158,3.0,6.0,75,0.00,,,-99.99,0.000000,,2013-01-27 10:32:00,
2013-01-27 04:42:00,11.0,5.0,-100.00,SSE,158,3.0,6.0,75,0.00,,,-99.99,0.000000,,2013-01-27 10:42:00,
2013-01-27 04:52:00,11.0,5.0,-100.00,SSE,158,3.0,6.0,75,0.00,,,-99.99,0.000000,,2013-01-27 10:52:00,
2013-01-27 05:01:00,11.0,5.0,-100.00,SSE,158,3.0,6.0,75,0.00,,,-99.99,0.000000,,2013-01-27 11:01:00,
2013-01-27 05:22:00,10.0,4.0,-100.00,SSE,153,4.0,6.0,76,0.00,,,0.00,0.000000,,2013-01-27 11:22:00,
2013-01-27 05:32:00,10.0,4.0,-100.00,SSE,153,4.0,6.0,76,0.00,,,0.00,0.000000,,2013-01-27 11:32:00,
2013-01-27 05:42:00,10.0,4.0,-100.00,SSE,153,4.0,6.0,76,0.00,,,0.00,0.000000,,2013-01-27 11:42:00,
2013-01-27 05:52:00,10.0,4.0,-100.00,SSE,153,4.0,6.0,76,0.00,,,0.00,0.000000,,2013-01-27 11:52:00,
2013-01-27 06:02:00,10.0,4.0,-100.00,SSE,153,4.0,6.0,76,0.00,,,0.00,0.000000,,2013-01-27 12:02:00,
2013-01-27 06:22:00,10.0,4.0,-100.00,SSE,165,4.0,9.0,77,0.00,,,0.00,0.000000,,2013-01-27 12:22:00,
2013-01-27 06:33:00,10.0,4.0,-100.00,SSE,165,4.0,9.0,77,0.00,,,0.00,0.000000,,2013-01-27 12:33:00,
2013-01-27 06:42:00,10.0,4.0,-100.00,SSE,165,4.0,9.0,77,0.00,,,0.00,0.000000,,2013-01-27 12:42:00,
2013-01-27 06:52:00,10.0,4.0,-100.00,SSE,165,4.0,9.0,77,0.00,,,0.00,0.000000,,2013-01-27 12:52:00,
2013-01-27 07:02:00,10.0,4.0,-100.00,SSE,165,4.0,9.0,77,0.00,,,0.00,0.000000,,2013-01-27 13:02:00,
2013-01-27 07:22:00,10.0,5.0,-100.00,SSE,159,4.0,7.0,78,0.00,,,0.00,0.000000,,2013-01-27 13:22:00,
2013-01-27 07:32:00,10.0,5.0,-100.00,SSE,159,4.0,7.0,78,0.00,,,0.00,0.000000,,2013-01-27 13:32:00,
2013-01-27 07:42:00,10.0,5.0,-100.00,SSE,159,4.0,7.0,78,0.00,,,0.00,0.000000,,2013-01-27 13:42:00,
2013-01-27 07:52:00,10.0,5.0,-100.00,SSE,159,4.0,7.0,78,0.00,,,0.00,0.000000,,2013-01-27 13:52:00,
2013-01-27 08:02:00,10.0,5.0,-100.00,SSE,159,4.0,7.0,78,0.00,,,0.00,0.000000,,2013-01-27 14:02:00,
2013-01-27 08:53:00,9.0,4.0,-100.00,SE,129,4.0,6.0,79,0.00,,,0.00,3.000000,,2013-01-27 14:53:00,
2013-01-27 09:02:00,9.0,4.0,-100.00,SE,129,4.0,6.0,79,0.00,,,0.00,3.000000,,2013-01-27 15:02:00,
2013-01-27 09:33:00,13.0,7.0,-100.00,SSE,149,4.0,7.0,76,0.00,,,0.00,51.000000,,2013-01-27 15:33:00,
2013-01-27 09:42:00,13.0,7.0,-100.00,SSE,149,4.0,7.0,76,0.00,,,0.00,51.000000,,2013-01-27 15:42:00,
2013-01-27 09:53:00,13.0,7.0,-100.00,SSE,149,4.0,7.0,76,0.00,,,0.00,51.000000,,2013-01-27 15:53:00,
2013-01-27 10:02:00,13.0,7.0,-100.00,SSE,149,4.0,7.0,76,0.00,,,0.00,51.000000,,2013-01-27 16:02:00,
2013-01-27 10:33:00,20.0,10.0,-100.00,SSE,155,5.0,10.0,64,0.00,,,0.00,207.000000,,2013-01-27 16:33:00,
2013-01-27 10:42:00,20.0,10.0,-100.00,SSE,155,5.0,10.0,64,0.00,,,0.00,207.000000,,2013-01-27 16:42:00,
2013-01-27 10:53:00,20.0,10.0,-100.00,SSE,155,5.0,10.0,64,0.00,,,0.00,207.000000,,2013-01-27 16:53:00,
2013-01-27 11:02:00,20.0,10.0,-100.00,SSE,155,5.0,10.0,64,0.00,,,0.00,207.000000,,2013-01-27 17:02:00,
2013-01-27 11:32:00,27.0,13.0,-100.00,SSE,166,5.0,10.0,56,0.01,,,0.01,323.000000,,2013-01-27 17:32:00,
2013-01-27 11:42:00,27.0,13.0,-100.00,SSE,166,5.0,10.0,56,0.01,,,0.01,323.000000,,2013-01-27 17:42:00,
2013-01-27 11:53:00,27.0,13.0,-100.00,SSE,166,5.0,10.0,56,0.01,,,0.01,323.000000,,2013-01-27 17:53:00,
2013-01-27 12:02:00,27.0,13.0,-100.00,SSE,166,5.0,10.0,56,0.01,,,0.01,323.000000,,2013-01-27 18:02:00,
2013-01-27 12:32:00,29.0,14.0,-100.00,South,171,6.0,10.0,54,0.02,,,0.03,368.000000,,2013-01-27 18:32:00,
2013-01-27 12:42:00,29.0,14.0,-100.00,South,171,6.0,10.0,54,0.02,,,0.03,368.000000,,2013-01-27 18:42:00,
2013-01-27 12:52:00,29.0,14.0,-100.00,South,171,6.0,10.0,54,0.02,,,0.03,368.000000,,2013-01-27 18:52:00,
2013-01-27 13:02:00,29.0,14.0,-100.00,South,171,6.0,10.0,54,0.02,,,0.03,368.000000,,2013-01-27 19:02:00,
2013-01-27 13:22:00,30.0,14.0,-100.00,SE,145,5.0,10.0,51,0.04,,,0.07,365.000000,,2013-01-27 19:22:00,
2013-01-27 13:33:00,30.0,14.0,-100.00,SE,145,5.0,10.0,51,0.04,,,0.07,365.000000,,2013-01-27 19:33:00,
2013-01-27 13:42:00,30.0,14.0,-100.00,SE,145,5.0,10.0,51,0.04,,,0.07,365.000000,,2013-01-27 19:42:00,
2013-01-27 13:52:00,30.0,14.0,-100.00,SE,145,5.0,10.0,51,0.04,,,0.07,365.000000,,2013-01-27 19:52:00,
2013-01-27 14:02:00,30.0,14.0,-100.00,SE,145,5.0,10.0,51,0.04,,,0.07,365.000000,,2013-01-27 20:02:00,
2013-01-27 14:22:00,31.0,16.0,-100.00,SE,135,5.0,9.0,54,0.05,,,0.12,259.000000,,2013-01-27 20:22:00,
2013-01-27 14:33:00,31.0,16.0,-100.00,SE,135,5.0,9.0,54,0.05,,,0.12,259.000000,,2013-01-27 20:33:00,
2013-01-27 14:42:00,31.0,16.0,-100.00,SE,135,5.0,9.0,54,0.05,,,0.12,259.000000,,2013-01-27 20:42:00,
2013-01-27 14:52:00,31.0,16.0,-100.00,SE,135,5.0,9.0,54,0.05,,,0.12,259.000000,,2013-01-27 20:52:00,
2013-01-27 15:02:00,31.0,16.0,-100.00,SE,135,5.0,9.0,54,0.05,,,0.12,259.000000,,2013-01-27 21:02:00,
2013-01-27 15:33:00,30.0,17.0,-100.00,SE,136,5.0,10.0,57,0.03,,,0.15,162.000000,,2013-01-27 21:33:00,
2013-01-27 15:43:00,30.0,17.0,-100.00,SE,136,5.0,10.0,57,0.03,,,0.15,162.000000,,2013-01-27 21:43:00,
2013-01-27 15:52:00,30.0,17.0,-100.00,SE,136,5.0,10.0,57,0.03,,,0.15,162.000000,,2013-01-27 21:52:00,
2013-01-27 16:02:00,30.0,17.0,-100.00,SE,136,5.0,10.0,57,0.03,,,0.15,162.000000,,2013-01-27 22:02:00,
2013-01-27 16:22:00,30.0,18.0,-100.00,SE,146,4.0,11.0,60,0.01,,,0.16,113.000000,,2013-01-27 22:22:00,
2013-01-27 16:33:00,30.0,18.0,-100.00,SE,146,4.0,11.0,60,0.01,,,0.16,113.000000,,2013-01-27 22:33:00,
2013-01-27 16:42:00,30.0,18.0,-100.00,SE,146,4.0,11.0,60,0.01,,,0.16,113.000000,,2013-01-27 22:42:00,
2013-01-27 16:52:00,30.0,18.0,-100.00,SE,146,4.0,11.0,60,0.01,,,0.16,113.000000,,2013-01-27 22:52:00,
2013-01-27 17:02:00,30.0,18.0,-100.00,SE,146,4.0,11.0,60,0.01,,,0.16,113.000000,,2013-01-27 23:02:00,
2013-01-27 17:22:00,28.0,18.0,-100.00,SE,133,4.0,9.0,67,0.00,,,0.16,28.000000,,2013-01-27 23:22:00,
2013-01-27 17:32:00,28.0,18.0,-100.00,SE,133,4.0,9.0,67,0.00,,,0.16,28.000000,,2013-01-27 23:32:00,
2013-01-27 17:42:00,28.0,18.0,-100.00,SE,133,4.0,9.0,67,0.00,,,0.16,28.000000,,2013-01-27 23:42:00,
2013-01-27 17:53:00,28.0,18.0,-100.00,SE,133,4.0,9.0,67,0.00,,,0.16,28.000000,,2013-01-27 23:53:00,
2013-01-27 18:02:00,28.0,18.0,-100.00,SE,133,4.0,9.0,67,0.00,,,0.16,28.000000,,2013-01-28 00:02:00,
2013-01-27 18:22:00,25.0,18.0,-100.00,ESE,113,4.0,7.0,74,0.00,,,0.16,0.000000,,2013-01-28 00:22:00,
2013-01-27 18:33:00,25.0,18.0,-100.00,ESE,113,4.0,7.0,74,0.00,,,0.16,0.000000,,2013-01-28 00:33:00,
2013-01-27 18:42:00,25.0,18.0,-100.00,ESE,113,4.0,7.0,74,0.00,,,0.16,0.000000,,2013-01-28 00:42:00,
2013-01-27 18:52:00,25.0,18.0,-100.00,ESE,113,4.0,7.0,74,0.00,,,0.16,0.000000,,2013-01-28 00:52:00,
2013-01-27 19:01:00,25.0,18.0,-100.00,ESE,113,4.0,7.0,74,0.00,,,0.16,0.000000,,2013-01-28 01:01:00,
2013-01-27 19:33:00,25.0,19.0,-100.00,East,94,4.0,7.0,76,0.00,,,0.16,0.000000,,2013-01-28 01:33:00,
2013-01-27 19:42:00,25.0,19.0,-100.00,East,94,4.0,7.0,76,0.00,,,0.16,0.000000,,2013-01-28 01:42:00,
2013-01-27 19:52:00,25.0,19.0,-100.00,East,94,4.0,7.0,76,0.00,,,0.16,0.000000,,2013-01-28 01:52:00,
2013-01-27 20:02:00,25.0,19.0,-100.00,East,94,4.0,7.0,76,0.00,,,0.16,0.000000,,2013-01-28 02:02:00,
2013-01-27 20:32:00,26.0,20.0,-100.00,ESE,118,5.0,9.0,77,0.00,,,0.16,0.000000,,2013-01-28 02:32:00,
2013-01-27 20:42:00,26.0,20.0,-100.00,ESE,118,5.0,9.0,77,0.00,,,0.16,0.000000,,2013-01-28 02:42:00,
2013-01-27 20:52:00,26.0,20.0,-100.00,ESE,118,5.0,9.0,77,0.00,,,0.16,0.000000,,2013-01-28 02:52:00,
2013-01-27 21:02:00,26.0,20.0,-100.00,ESE,118,5.0,9.0,77,0.00,,,0.16,0.000000,,2013-01-28 03:02:00,
2013-01-27 21:22:00,26.0,20.0,-100.00,ESE,122,5.0,9.0,77,0.00,,,0.16,0.000000,,2013-01-28 03:22:00,
2013-01-27 21:32:00,26.0,20.0,-100.00,ESE,122,5.0,9.0,77,0.00,,,0.16,0.000000,,2013-01-28 03:32:00,
2013-01-27 21:42:00,26.0,20.0,-100.00,ESE,122,5.0,9.0,77,0.00,,,0.16,0.000000,,2013-01-28 03:42:00,
2013-01-27 21:53:00,26.0,20.0,-100.00,ESE,122,5.0,9.0,77,0.00,,,0.16,0.000000,,2013-01-28 03:53:00,
2013-01-27 22:02:00,26.0,20.0,-100.00,ESE,122,5.0,9.0,77,0.00,,,0.16,0.000000,,2013-01-28 04:02:00,
2013-01-27 22:22:00,26.0,20.0,-100.00,ESE,121,5.0,9.0,79,0.00,,,0.16,0.000000,,2013-01-28 04:22:00,
2013-01-27 22:32:00,26.0,20.0,-100.00,ESE,121,5.0,9.0,79,0.00,,,0.16,0.000000,,2013-01-28 04:32:00,
2013-01-27 22:42:00,26.0,20.0,-100.00,ESE,121,5.0,9.0,79,0.00,,,0.16,0.000000,,2013-01-28 04:42:00,
2013-01-27 22:52:00,26.0,20.0,-100.00,ESE,121,5.0,9.0,79,0.00,,,0.16,0.000000,,2013-01-28 04:52:00,
2013-01-27 23:03:00,26.0,20.0,-100.00,ESE,121,5.0,9.0,79,0.00,,,0.16,0.000000,,2013-01-28 05:03:00,
2013-01-27 23:32:00,25.0,20.0,-100.00,ESE,106,3.0,8.0,80,0.00,,,0.16,0.000000,,2013-01-28 05:32:00,
2013-01-27 23:42:00,25.0,20.0,-100.00,ESE,106,3.0,8.0,80,0.00,,,0.16,0.000000,,2013-01-28 05:42:00,
2013-01-27 23:52:00,25.0,20.0,-100.00,ESE,106,3.0,8.0,80,0.00,,,0.16,0.000000,,2013-01-28 05:52:00,